Tracking 31027 objects as of 19-Jul-2025
HD Live streaming from Space Station
objects crossing your sky now

STARLINK-5376

Track STARLINK-5376 now!
10-day predictions
STARLINK-5376 is classified as:


NORAD ID: 56142
Int'l Code: 2023-046BC
Perigee: 565.3 km
Apogee: 567.2 km
Inclination: 43.0 °
Period: 95.8 minutes
Semi major axis: 6937 km
RCS: Unknown
Launch date: March 29, 2023
Source: United States (US)
Launch site: AIR FORCE EASTERN TEST RANGE (AFETR)
Your satellite tracking list
IRIDIUM 106
Track 1 satellite(s)




NASA's NSSDC Master Catalog

Two Line Element Set (TLE):
1 56142U 23046BC  25199.75483345  .00000073  00000-0  20467-4 0  9991
2 56142  43.0046 336.9680 0001390 265.5508  94.5176 15.02532943127563
Source of the keplerian elements: AFSPC